CDT,Max TemperatureF,Mean TemperatureF,Min TemperatureF,Max Dew PointF,MeanDew PointF,Min DewpointF,Max Humidity, Mean Humidity, Min Humidity, Max Sea Level PressureIn, Mean Sea Level PressureIn, Min Sea Level PressureIn, Max VisibilityMiles, Mean VisibilityMiles, Min VisibilityMiles, Max Wind SpeedMPH, Mean Wind SpeedMPH, Max Gust SpeedMPH,PrecipitationIn, CloudCover, Events, WindDirDegrees
2013-9-1,64,58,51,61,55,46,100,85,72,30.02,29.85,29.70,10,9,1,17,7,29,0.00,7,Rain,322
2013-9-2,64,53,41,50,45,41,100,75,48,30.12,30.07,30.02,10,9,1,10,5,16,0.00,4,,351
2013-9-3,77,56,35,61,49,36,100,76,44,30.06,30.00,29.94,10,7,0,15,3,21,0.00,3,Fog,252
2013-9-4,71,58,42,59,48,37,94,66,31,30.22,30.14,29.97,10,10,10,9,4,,0.00,1,,6
2013-9-5,75,55,35,54,45,36,100,71,38,30.29,30.22,30.13,10,10,10,10,2,,0.00,0,,168
2013-9-6,82,66,50,70,60,50,100,81,54,30.13,29.98,29.89,10,10,3,14,3,17,0.00,2,,257
2013-9-7,80,68,53,68,60,54,100,79,42,30.16,30.02,29.91,10,8,0,13,3,20,0.00,1,Fog,41
2013-9-8,64,55,46,55,51,45,100,81,52,30.18,30.09,29.93,10,10,1,12,3,16,0.00,3,Rain,128
2013-9-9,64,60,57,64,60,55,100,97,94,29.93,29.78,29.70,10,6,0,7,1,,0.00,8,Fog-Rain-Thunderstorm,126
2013-9-10,71,63,51,64,60,52,100,84,64,29.95,29.85,29.73,10,8,0,14,6,16,0.00,6,Fog-Rain,263
2013-9-11,73,60,46,61,52,46,100,80,38,30.10,29.99,29.93,10,6,0,21,4,29,0.00,5,Fog-Rain,293
2013-9-12,62,50,39,52,45,37,100,76,48,30.26,30.19,30.10,10,10,10,14,4,21,0.00,3,,341
2013-9-13,64,48,33,50,42,34,100,76,48,30.28,30.20,30.05,10,9,0,10,2,16,0.00,3,Fog,208
2013-9-14,71,55,39,54,48,37,100,77,52,30.05,29.96,29.88,10,10,10,16,6,24,0.00,2,Rain,225
2013-9-15,57,46,35,55,44,34,100,81,48,30.34,30.17,29.96,10,10,7,17,5,23,0.00,5,Rain,19
2013-9-16,62,45,28,43,37,28,100,77,42,30.42,30.35,30.26,10,8,0,10,2,10,0.00,1,Fog,193
2013-9-17,68,50,32,50,43,32,100,71,46,30.26,30.11,29.96,10,9,1,18,6,25,0.00,2,,181
2013-9-18,62,60,57,63,57,50,100,92,77,29.95,29.84,29.76,10,6,1,13,6,18,0.00,8,,149
2013-9-19,68,65,62,66,64,59,100,97,88,29.78,29.72,29.66,10,4,0,15,3,18,0.00,8,Fog-Rain-Thunderstorm,203
2013-9-20,60,55,44,59,48,43,94,83,63,29.88,29.80,29.73,10,10,3,17,9,26,0.00,7,Rain,305
2013-9-21,57,45,33,41,37,32,100,74,48,29.99,29.94,29.88,10,10,7,13,6,20,0.00,3,,331
2013-9-22,59,46,32,43,39,30,100,79,51,30.03,29.98,29.92,10,10,10,15,4,21,0.00,0,,113
2013-9-23,69,56,44,50,47,43,94,72,46,29.97,29.93,29.91,10,10,10,17,7,26,0.00,0,,153
2013-9-24,71,53,35,54,46,36,100,82,46,30.00,29.97,29.95,10,7,0,13,2,16,0.00,0,Fog,178
2013-9-25,71,53,35,52,46,36,100,79,41,30.00,29.98,29.93,10,7,0,14,2,21,0.00,1,Fog,137
2013-9-26,71,58,44,55,51,43,100,79,53,29.99,29.96,29.90,10,8,2,18,6,24,0.00,3,,125
2013-9-27,75,63,51,61,56,50,94,75,53,29.96,29.89,29.82,10,10,10,22,7,32,0.00,2,Rain-Thunderstorm,155
2013-9-28,69,56,42,59,52,41,100,80,64,29.86,29.71,29.53,10,9,2,23,12,36,0.09,5,Rain,196
2013-9-29,69,51,33,46,41,34,100,73,35,29.90,29.84,29.75,10,8,0,15,3,20,0.00,0,Fog,189
2013-9-30,71,61,51,52,47,43,94,62,46,29.74,29.63,29.59,10,10,10,17,8,24,0.00,0,,189